Temperature
3 4 4 4 4 4 4 4 5 5 5 5 5 5 5 5 5 5 5 5 5 5 5 5 5 5 5 5 5 5 4 4 4 5 4 4 4 4 4 4 4 4 4
3 3 3 3 3 3 3 4 4 4 4 4 4 4 5 5 5 5 5 5 5 5 5 5 5 5 4 4 4 4 4 4 4 4 4 4 4 4 4 4 3 3 3
2 2 2 2 3 3 3 3 3 3 3 4 4 4 4 4 4 4 4 4 4 4 4 4 4 4 4 4 4 4 4 4 4 3 4 3 3 3 3 3 3 3 3
1 1 2 2 2 2 2 2 3 3 3 3 3 3 4 4 4 4 4 4 4 4 4 4 4 4 4 4 4 3 3 3 3 3 3 3 3 3 2 2 3 3 2
0 1 1 1 1 1 2 2 2 2 2 2 3 3 3 3 3 4 3 3 3 3 3 3 3 3 3 3 3 3 3 3 2 2 2 2 2 2 2 2 2 2 2
-0 0 0 1 1 1 1 1 1 1 2 2 2 2 3 3 3 3 3 3 3 3 3 3 3 3 3 3 3 3 3 2 2 2 2 2 2 2 2 1 1 1 1
-1 -1 -0 -0 0 0 1 1 1 1 1 1 2 2 2 2 2 2 2 2 2 2 2 2 2 2 2 2 2 2 2 2 2 2 2 2 2 1 1 1 1 1 0
-1 -1 -1 -1 -1 -0 0 1 1 1 1 1 1 1 1 2 2 2 2 2 2 2 2 2 2 2 2 2 2 2 2 2 2 2 1 1 1 1 1 0 0 -0 0
-2 -2 -1 -1 -1 -1 -0 0 0 0 0 0 1 1 1 1 1 1 1 1 1 1 1 1 1 1 2 1 1 1 1 1 1 1 1 1 1 0 0 0 -0 -0 -0
-3 -2 -2 -2 -2 -1 -1 -1 -0 -0 -0 0 0 0 0 1 1 1 1 1 1 1 1 1 1 1 1 1 1 1 1 1 1 1 1 1 0 0 -0 -0 -1 -1 -1
-3 -3 -2 -2 -2 -2 -2 -1 -1 -1 -1 -0 -0 -0 0 0 0 0 0 0 0 0 0 0 0 0 0 1 1 1 1 1 1 0 0 0 -0 -0 -0 -1 -1 -1 -1
-4 -3 -3 -3 -2 -2 -2 -2 -1 -1 -1 -1 -1 -1 -1 -1 -0 -0 -0 -0 -0 -0 -0 -0 -0 -0 0 0 0 0 -0 -0 -0 -0 -0 -1 -1 -1 -1 -1 -1 -1 -2
-4 -4 -3 -3 -3 -2 -2 -2 -2 -2 -2 -2 -2 -2 -2 -1 -1 -1 -1 -1 -1 -1 -1 -1 -1 -0 -0 -0 -1 -1 -1 -1 -1 -1 -1 -1 -1 -1 -1 -2 -2 -2 -2
-5 -4 -4 -4 -3 -3 -3 -3 -3 -2 -2 -2 -3 -2 -2 -2 -2 -2 -2 -2 -1 -1 -1 -1 -1 -1 -1 -1 -1 -1 -1 -1 -1 -1 -2 -1 -2 -2 -2 -2 -2 -2 -2
-5 -5 -5 -4 -4 -4 -3 -3 -3 -3 -3 -3 -3 -3 -3 -3 -3 -2 -2 -2 -2 -2 -2 -2 -2 -2 -2 -2 -2 -2 -2 -2 -2 -2 -2 -2 -2 -2 -2 -2 -3 -3 -3
-6 -5 -5 -5 -5 -5 -4 -4 -4 -4 -4 -3 -3 -3 -3 -3 -3 -3 -3 -3 -3 -2 -2 -2 -2 -2 -2 -2 -2 -2 -2 -2 -2 -3 -3 -3 -3 -3 -3 -3 -3 -3 -3
-6 -6 -6 -6 -5 -5 -5 -5 -4 -4 -4 -4 -4 -4 -3 -3 -3 -3 -3 -3 -3 -3 -3 -3 -3 -3 -3 -3 -3 -3 -3 -3 -3 -3 -3 -3 -3 -3 -4 -4 -4 -4 -4
-7 -6 -6 -6 -6 -6 -6 -6 -5 -5 -5 -4 -4 -4 -4 -4 -4 -4 -4 -4 -4 -4 -4 -4 -4 -4 -4 -4 -4 -4 -4 -4 -4 -4 -4 -4 -4 -4 -4 -4 -5 -5 -5
-7 -7 -7 -6 -6 -6 -6 -6 -6 -6 -5 -5 -5 -5 -5 -4 -4 -4 -4 -4 -4 -4 -4 -4 -4 -4 -4 -4 -4 -4 -4 -4 -4 -5 -5 -5 -5 -5 -5 -5 -5 -5 -5
-7 -7 -7 -7 -7 -7 -6 -6 -6 -6 -6 -6 -6 -5 -5 -5 -5 -5 -5 -5 -5 -5 -5 -5 -5 -5 -5 -5 -5 -5 -5 -5 -5 -5 -5 -5 -5 -5 -5 -5 -5 -6 -6
-8 -7 -7 -7 -7 -7 -7 -7 -7 -6 -6 -6 -6 -6 -6 -6 -5 -5 -5 -5 -5 -5 -5 -5 -5 -5 -5 -5 -5 -5 -5 -5 -5 -5 -5 -5 -6 -6 -6 -6 -6 -6 -6
-8 -8 -8 -8 -7 -7 -7 -7 -7 -7 -7 -7 -6 -6 -6 -6 -6 -6 -6 -6 -5 -6 -5 -5 -5 -5 -5 -5 -5 -5 -5 -5 -5 -5 -5 -6 -6 -6 -6 -6 -6 -6 -6
-8 -8 -8 -8 -8 -8 -8 -8 -7 -7 -7 -7 -7 -7 -7 -6 -6 -6 -6 -6 -6 -6 -6 -6 -6 -6 -6 -6 -6 -6 -6 -6 -6 -6 -6 -6 -6 -6 -6 -6 -6 -6 -6
-9 -9 -8 -8 -8 -8 -8 -8 -8 -8 -8 -8 -7 -7 -7 -7 -7 -7 -7 -7 -7 -6 -6 -6 -6 -6 -6 -6 -6 -6 -6 -6 -6 -6 -6 -6 -6 -7 -7 -7 -7 -7 -7
-9 -9 -9 -9 -9 -9 -9 -9 -9 -8 -8 -8 -8 -8 -7 -7 -7 -7 -7 -7 -7 -7 -7 -7 -7 -7 -6 -6 -6 -6 -6 -7 -7 -7 -7 -7 -7 -7 -7 -7 -7 -7 -7
-9 -9 -9 -9 -9 -9 -9 -9 -9 -9 -9 -8 -8 -8 -8 -8 -8 -7 -7 -7 -7 -7 -7 -7 -7 -7 -7 -7 -7 -7 -7 -7 -7 -7 -7 -7 -7 -7 -7 -7 -7 -7 -7
Wind_Speed
2 1 1 1 1 1 2 3 3 3 3 3 4 4 5 5 5 6 6 6 6 6 5 6 6 5 4 3 3 3 3 3 4 3 1 1 2 2 2 3 3 3 5
3 2 1 1 1 1 2 2 3 3 3 4 4 4 5 5 5 6 7 6 7 7 7 6 6 5 5 4 4 4 4 4 4 4 2 2 2 2 2 2 2 3 5
3 2 2 1 1 2 2 2 2 3 3 4 4 5 5 5 5 6 6 6 7 7 7 7 7 7 6 5 5 5 4 3 3 3 3 2 1 1 1 1 2 3 4
4 3 2 2 2 2 3 3 3 3 4 4 4 5 5 5 5 6 6 6 6 6 6 6 7 7 7 7 6 6 5 4 3 3 3 2 1 1 1 1 2 2 3
4 3 3 3 3 3 3 3 3 3 4 4 4 4 4 4 5 6 6 6 6 5 5 5 6 7 8 7 6 6 6 5 4 4 3 2 2 2 2 2 2 2 3
4 3 3 3 3 3 3 3 3 3 3 3 4 4 4 4 6 7 6 5 5 6 5 5 5 6 7 8 8 8 8 7 6 5 4 4 4 3 2 2 2 2 3
4 4 4 3 4 4 3 2 2 3 3 3 4 4 4 5 6 6 6 4 4 5 5 5 4 4 6 5 6 6 6 8 8 6 6 6 5 5 4 3 3 3 4
5 4 4 4 4 4 3 3 3 2 2 3 3 4 3 4 5 6 6 4 3 4 4 5 5 5 5 6 5 4 4 4 5 4 5 6 5 5 5 5 4 3 2
6 5 5 4 4 4 3 3 3 2 2 2 2 3 3 3 4 5 5 3 3 3 4 4 5 5 7 7 6 5 4 3 3 5 5 5 5 6 5 3 2 2 3
6 6 5 4 4 4 4 3 2 2 1 1 1 1 2 2 3 3 4 3 3 3 3 3 5 6 7 7 6 6 5 4 3 2 2 2 2 3 5 4 4 3 2
6 6 5 5 4 3 2 2 1 1 0 0 0 0 1 1 2 2 3 3 4 3 3 3 3 6 7 7 6 5 6 4 4 3 2 2 1 1 2 3 3 4 4
6 6 6 5 4 3 1 1 1 1 1 1 1 0 0 0 1 1 2 3 3 3 3 3 3 5 6 6 5 5 6 4 3 3 3 2 2 2 2 2 3 4 4
6 6 6 6 4 3 2 1 1 1 1 1 1 1 0 0 0 1 2 2 2 2 3 4 4 5 4 3 4 5 4 3 3 3 3 3 3 2 1 1 1 0 1
6 6 5 5 5 4 3 2 1 0 1 1 1 1 1 0 1 1 1 1 1 1 1 3 3 3 2 3 3 2 2 2 3 3 2 2 2 2 2 2 1 1 1
5 5 5 5 5 4 3 2 2 1 1 1 1 2 2 2 2 2 1 1 1 2 2 1 1 2 1 1 1 1 1 1 1 1 2 2 2 2 1 1 1 1 1
5 5 4 4 4 4 3 4 5 4 4 3 2 1 2 2 2 1 1 0 1 3 2 2 2 2 2 2 2 1 1 1 2 2 2 2 2 2 1 1 1 1 2
4 5 4 4 3 3 3 3 3 5 5 5 4 3 2 1 1 0 1 2 2 3 2 2 2 2 2 2 2 1 1 1 1 2 2 2 2 2 2 1 1 1 2
5 5 5 3 3 3 3 3 2 2 3 3 4 4 4 3 3 3 2 2 2 2 1 1 1 1 1 1 1 1 1 1 1 1 1 2 2 2 2 2 2 2 2
5 4 4 3 3 3 3 3 2 2 2 3 3 4 5 4 4 4 4 2 1 1 1 1 1 1 1 1 1 1 1 1 1 1 1 1 2 2 2 2 2 3 2
4 6 6 4 3 3 3 3 3 3 2 3 3 3 3 3 2 2 2 2 1 0 0 0 0 1 1 1 1 2 1 1 2 2 2 2 2 2 2 2 2 2 2
4 5 6 4 3 3 3 3 3 3 2 2 3 3 4 2 2 2 2 1 1 1 1 1 1 1 1 1 1 2 2 2 2 2 2 2 2 2 2 2 2 2 2
4 3 3 3 3 3 3 3 3 3 3 3 3 3 4 2 1 1 2 2 2 1 1 1 1 1 2 2 2 2 2 3 2 2 2 2 2 2 2 2 2 2 2
4 4 4 3 3 4 4 3 3 3 3 3 3 3 3 2 2 1 2 2 2 2 2 2 2 2 3 3 4 4 4 4 4 4 3 3 3 3 3 3 3 3 3
4 3 3 3 3 3 3 3 3 3 3 3 3 3 3 2 2 2 2 2 2 3 3 3 3 4 4 4 4 4 5 5 5 5 6 4 4 3 3 3 4 4 4
3 3 3 3 3 3 3 3 3 3 3 3 3 3 3 3 3 3 3 3 3 3 4 4 4 4 5 5 5 5 6 6 6 6 6 5 5 4 4 4 4 3 3
3 3 3 3 3 3 3 3 4 4 4 4 4 3 3 3 3 3 3 3 3 3 4 4 5 5 6 5 6 6 6 6 7 7 6 5 4 4 4 4 4 4 4
Wind_Direction
341 332 324 289 247 216 213 216 216 213 208 211 206 197 198 196 188 188 195 192 196 197 192 192 198 187 187 187 179 176 181 177 216 250 225 222 215 221 252 249 258 271 278
333 323 301 291 263 237 246 240 216 216 215 214 210 201 204 200 193 194 198 197 198 201 198 194 201 194 194 191 191 195 195 190 197 227 233 212 227 231 232 252 265 264 274
330 316 307 306 281 262 255 252 235 225 222 216 210 209 208 206 200 198 198 198 200 203 199 198 201 195 201 198 195 199 199 195 191 198 219 220 235 240 248 284 284 281 285
332 322 310 298 279 268 259 248 242 231 229 221 217 214 208 206 205 201 197 197 199 202 201 201 200 201 204 199 199 198 191 188 182 185 198 215 233 238 208 252 286 289 294
335 326 315 312 301 288 274 257 244 235 232 222 218 218 209 207 205 198 196 193 196 201 202 205 206 204 204 203 202 195 187 189 187 192 200 208 221 225 232 228 260 289 286
333 324 322 318 311 295 283 261 246 237 231 221 221 218 216 218 205 201 197 192 196 200 204 208 209 206 207 207 207 200 191 192 195 199 207 213 224 220 220 227 242 280 278
333 334 330 320 309 300 295 280 259 246 232 227 224 213 213 211 204 200 198 197 195 200 203 204 207 211 207 203 206 207 210 211 206 202 204 215 214 209 198 215 229 242 254
336 336 333 322 311 306 302 289 271 250 229 231 225 214 209 213 203 201 195 198 195 201 201 200 202 209 206 190 183 193 210 217 213 210 211 217 216 205 199 207 218 235 266
338 332 326 322 314 310 304 292 279 257 239 239 226 204 201 221 213 208 197 191 195 205 208 201 201 206 207 193 184 190 200 213 211 208 214 215 214 212 195 165 182 225 264
328 322 322 318 310 301 289 282 279 262 250 244 230 198 194 208 208 208 201 193 194 203 205 206 208 210 208 201 195 194 204 211 188 182 187 206 207 209 202 195 197 215 246
325 328 330 325 314 302 292 287 273 247 210 187 220 198 179 195 197 204 208 201 194 195 205 212 211 211 212 212 209 205 208 193 180 184 193 197 196 203 203 205 208 209 222
334 336 338 336 331 326 331 330 348 139 147 177 182 138 54 189 197 204 212 218 202 195 210 216 212 209 215 214 213 205 195 181 177 184 195 207 215 227 224 220 222 227 229
342 343 342 343 347 346 5 15 23 96 152 203 191 185 245 346 249 247 230 225 221 214 205 205 210 206 201 202 204 198 190 186 184 198 211 220 220 215 198 201 208 196 300
343 343 344 350 351 356 359 4 12 27 207 210 215 206 214 296 307 268 239 228 216 212 191 183 183 184 183 180 183 186 182 188 190 204 214 213 199 192 196 199 211 218 278
343 345 345 347 347 349 356 356 338 319 279 251 225 207 197 220 254 273 262 225 200 187 162 151 150 156 164 155 144 141 145 157 177 187 189 197 200 193 203 213 208 202 216
343 345 345 345 347 352 356 359 2 1 358 357 353 303 260 255 256 262 273 232 171 153 148 157 170 173 175 177 175 169 171 186 188 181 193 199 206 203 203 210 205 213 238
338 339 341 345 349 350 353 355 354 2 10 12 15 11 14 44 78 94 128 120 118 122 123 141 156 166 169 165 167 169 185 195 182 179 193 203 205 199 197 210 222 238 253
341 341 342 340 344 347 348 347 349 354 355 357 1 11 17 36 48 59 90 103 104 97 120 148 158 158 154 158 160 162 162 159 170 181 188 195 196 195 203 218 225 232 250
345 345 342 341 343 346 347 348 350 350 350 349 357 2 10 21 34 46 54 68 106 100 105 147 166 187 200 197 190 181 180 185 189 187 195 199 201 202 210 218 227 244 260
342 344 346 343 344 347 347 347 347 349 350 351 351 350 355 13 20 22 29 39 47 40 59 201 231 223 216 207 193 183 189 202 201 202 208 211 212 211 212 215 222 234 256
334 335 340 339 339 337 336 336 336 338 337 335 335 342 354 10 18 14 10 8 351 324 310 288 269 253 237 225 204 194 202 216 215 211 213 216 209 219 222 219 227 235 250
325 323 325 326 328 330 329 329 331 332 332 329 329 338 348 1 2 351 339 330 325 314 305 283 272 263 244 227 219 214 221 227 223 217 218 221 218 224 230 224 222 231 235
322 319 323 325 325 326 332 334 332 329 326 325 329 335 336 335 332 323 312 315 318 308 296 283 273 271 264 251 239 227 223 229 232 226 219 220 222 225 230 230 223 228 235
320 317 318 320 322 322 323 324 324 323 322 321 321 319 319 317 315 314 311 314 313 310 302 290 276 269 269 267 261 250 244 243 237 229 224 221 224 230 232 233 228 228 232
328 322 318 317 318 319 318 317 317 315 314 314 312 310 308 306 304 304 308 307 307 306 307 299 286 279 274 272 272 266 257 249 243 235 226 227 226 227 230 234 232 228 232
334 327 320 317 315 314 312 311 310 310 307 308 307 303 298 294 293 296 300 302 303 301 302 298 293 289 286 281 275 268 263 258 253 245 232 227 223 227 229 235 230 228 228
Height
1475 1476 1477 1478 1480 1482 1483 1484 1486 1487 1489 1491 1493 1495 1496 1498 1500 1502 1504 1506 1508 1509 1511 1513 1515 1517 1519 1521 1523 1524 1526 1527 1527 1528 1530 1530 1531 1531 1531 1531 1532 1531 1531
1473 1474 1474 1475 1477 1478 1479 1480 1482 1483 1485 1486 1488 1490 1492 1493 1495 1497 1499 1501 1503 1505 1507 1509 1510 1513 1514 1516 1518 1519 1521 1522 1523 1523 1524 1526 1526 1527 1527 1527 1527 1527 1526
1471 1471 1472 1472 1473 1474 1475 1477 1478 1479 1480 1482 1484 1485 1487 1489 1490 1492 1494 1496 1498 1500 1502 1504 1505 1507 1509 1511 1512 1514 1516 1517 1518 1519 1519 1521 1522 1522 1522 1522 1522 1522 1521
1468 1468 1469 1469 1470 1471 1472 1473 1474 1475 1476 1477 1479 1481 1482 1484 1486 1487 1489 1491 1493 1495 1497 1499 1500 1502 1504 1505 1507 1509 1511 1512 1513 1514 1515 1516 1517 1517 1517 1517 1516 1517 1516
1466 1466 1466 1466 1467 1467 1468 1468 1469 1470 1472 1473 1474 1476 1477 1479 1481 1482 1484 1486 1488 1490 1492 1494 1495 1497 1499 1501 1502 1503 1505 1507 1508 1509 1510 1511 1511 1512 1513 1513 1512 1512 1511
1463 1463 1463 1463 1463 1464 1464 1465 1465 1466 1467 1468 1470 1471 1472 1474 1476 1478 1480 1481 1483 1485 1486 1488 1490 1492 1494 1496 1497 1499 1500 1502 1503 1504 1505 1506 1506 1508 1509 1509 1508 1508 1507
1461 1460 1460 1460 1460 1460 1460 1461 1461 1462 1463 1464 1465 1466 1467 1469 1471 1473 1475 1477 1478 1480 1482 1484 1485 1487 1489 1491 1492 1494 1495 1497 1499 1500 1500 1501 1502 1503 1504 1505 1504 1504 1503
1458 1457 1457 1456 1456 1456 1456 1457 1457 1458 1458 1459 1460 1462 1463 1465 1467 1468 1470 1472 1473 1475 1477 1479 1481 1482 1484 1486 1487 1489 1490 1492 1493 1495 1496 1497 1498 1499 1500 1500 1500 1500 1498
1456 1455 1454 1454 1453 1452 1452 1452 1453 1454 1454 1455 1456 1458 1459 1460 1463 1464 1466 1467 1469 1471 1473 1475 1476 1478 1479 1481 1483 1484 1485 1487 1489 1490 1491 1492 1493 1494 1495 1495 1495 1494 1493
1454 1453 1452 1451 1450 1449 1449 1449 1449 1450 1451 1451 1452 1453 1455 1456 1458 1460 1462 1463 1464 1466 1468 1470 1472 1473 1475 1476 1478 1479 1480 1481 1484 1485 1486 1487 1488 1489 1489 1490 1490 1490 1488
1452 1451 1449 1448 1447 1446 1445 1446 1446 1446 1447 1448 1449 1449 1451 1453 1454 1456 1458 1459 1460 1462 1464 1465 1467 1469 1470 1472 1473 1474 1475 1477 1479 1480 1481 1482 1483 1484 1484 1484 1485 1485 1484
1450 1448 1447 1445 1444 1443 1442 1442 1443 1443 1443 1444 1445 1446 1447 1449 1451 1452 1454 1455 1456 1458 1459 1461 1462 1464 1466 1467 1468 1470 1471 1473 1474 1475 1476 1477 1478 1478 1479 1479 1480 1480 1479
1448 1446 1445 1444 1442 1441 1440 1440 1440 1440 1441 1441 1442 1443 1444 1446 1447 1449 1450 1451 1452 1454 1455 1456 1458 1460 1462 1463 1464 1465 1467 1468 1469 1470 1470 1471 1473 1473 1474 1474 1474 1474 1474
1447 1445 1444 1442 1441 1440 1439 1439 1438 1438 1438 1439 1440 1441 1442 1443 1444 1445 1446 1447 1448 1450 1451 1452 1454 1455 1457 1458 1459 1460 1462 1463 1464 1465 1466 1467 1468 1468 1469 1469 1469 1469 1469
1446 1444 1443 1441 1440 1439 1438 1438 1437 1437 1437 1437 1438 1439 1439 1440 1442 1443 1443 1444 1445 1446 1447 1449 1450 1451 1452 1453 1454 1456 1457 1458 1459 1460 1461 1462 1462 1463 1463 1464 1464 1464 1464
1444 1443 1442 1440 1439 1438 1437 1436 1436 1436 1436 1436 1436 1437 1438 1439 1440 1440 1441 1442 1442 1443 1444 1445 1446 1447 1448 1449 1450 1451 1452 1454 1455 1455 1456 1457 1457 1458 1459 1459 1460 1460 1459
1444 1442 1441 1440 1438 1437 1436 1435 1434 1434 1435 1435 1435 1435 1436 1436 1437 1437 1438 1439 1440 1441 1441 1442 1443 1444 1445 1446 1447 1448 1449 1450 1451 1451 1452 1453 1453 1454 1454 1455 1455 1456 1456
1443 1442 1441 1439 1438 1437 1436 1435 1434 1433 1433 1432 1433 1433 1434 1434 1434 1435 1436 1437 1437 1438 1439 1439 1440 1441 1442 1443 1444 1445 1446 1446 1447 1448 1448 1449 1449 1450 1451 1451 1451 1452 1452
1443 1442 1441 1439 1438 1437 1436 1435 1434 1434 1433 1432 1432 1432 1433 1433 1433 1433 1434 1435 1435 1436 1437 1438 1438 1439 1440 1441 1442 1442 1443 1444 1444 1445 1445 1445 1446 1447 1447 1448 1448 1448 1449
1443 1442 1441 1439 1438 1437 1436 1435 1434 1433 1433 1432 1431 1432 1432 1432 1431 1432 1433 1433 1434 1435 1435 1436 1437 1438 1438 1439 1439 1440 1440 1441 1441 1442 1442 1443 1443 1444 1444 1445 1445 1445 1445
1442 1441 1440 1439 1438 1437 1436 1435 1434 1433 1433 1432 1432 1432 1432 1431 1431 1431 1431 1432 1433 1433 1434 1434 1435 1436 1436 1437 1437 1437 1438 1438 1439 1439 1439 1440 1440 1440 1441 1441 1442 1442 1442
1442 1440 1439 1438 1437 1436 1436 1435 1434 1433 1432 1432 1431 1431 1431 1430 1430 1430 1430 1431 1431 1432 1432 1433 1433 1433 1433 1434 1434 1434 1435 1435 1436 1436 1436 1437 1437 1437 1438 1438 1438 1439 1439
1440 1439 1438 1437 1436 1435 1435 1434 1433 1432 1431 1431 1430 1430 1429 1429 1429 1429 1429 1429 1429 1430 1430 1430 1430 1431 1431 1431 1431 1431 1431 1432 1432 1433 1433 1433 1434 1434 1434 1435 1435 1435 1436
1439 1438 1436 1436 1435 1434 1433 1432 1431 1431 1430 1429 1429 1428 1428 1428 1427 1427 1427 1427 1427 1427 1427 1428 1428 1428 1428 1428 1428 1428 1428 1428 1429 1429 1430 1430 1430 1431 1431 1432 1432 1432 1432
1437 1436 1435 1434 1433 1432 1431 1430 1430 1429 1428 1428 1427 1427 1426 1426 1425 1425 1425 1425 1425 1425 1425 1425 1425 1425 1425 1425 1425 1425 1425 1425 1426 1426 1426 1427 1427 1428 1428 1428 1428 1429 1429
1436 1434 1433 1432 1431 1430 1429 1428 1428 1427 1426 1426 1425 1425 1424 1424 1423 1423 1423 1422 1422 1422 1422 1422 1421 1421 1421 1421 1421 1421 1422 1422 1422 1423 1423 1423 1423 1424 1424 1424 1425 1425 1425